• In Hungary
  • List of Countries
  • For 7 days
  • Water Temperature
  • Satellite Maps
  • Weather Map
  • News
  • Weather Widgets
  • user-avatar
    Login

    Hourly Weather Kaspis

    Today, 25 June, Monday

    Time Temperature Precipitation Wind Pressure Humidity
    00:00 +19°C° 0.5 mm 1 mps 683 mmHg 85%
    01:00 +18°C° 0 mm 1 mps 683 mmHg 85%
    02:00 +18°C° 0 mm 1 mps 683 mmHg 85%
    03:00 +18°C° 0 mm 1 mps 683 mmHg 81%
    04:00 +19°C° 0 mm 1 mps 683 mmHg 79%
    05:00 +20°C° 0 mm 1 mps 683 mmHg 76%
    06:00 +20°C° 0 mm 1 mps 684 mmHg 74%
    07:00 +21°C° 0.1 mm 2 mps 684 mmHg 65%
    08:00 +24°C° 0.1 mm 2 mps 684 mmHg 57%
    09:00 +27°C° 0 mm 3 mps 684 mmHg 48%
    10:00 +28°C° 0 mm 3 mps 684 mmHg 46%
    11:00 +29°C° 0 mm 4 mps 684 mmHg 43%
    12:00 +30°C° 0 mm 4 mps 684 mmHg 41%
    13:00 +30°C° 0 mm 4 mps 684 mmHg 40%
    14:00 +32°C° 0 mm 4 mps 684 mmHg 39%
    15:00 +32°C° 0 mm 4 mps 684 mmHg 38%
    16:00 +30°C° 0 mm 4 mps 684 mmHg 40%
    17:00 +29°C° 0 mm 3 mps 684 mmHg 42%
    18:00 +29°C° 0 mm 3 mps 684 mmHg 45%
    19:00 +27°C° 0 mm 2 mps 684 mmHg 49%
    20:00 +24°C° 0 mm 2 mps 684 mmHg 53%
    21:00 +22°C° 0 mm 1 mps 684 mmHg 57%
    22:00 +21°C° 0 mm 2 mps 683 mmHg 57%
    23:00 +20°C° 0 mm 2 mps 683 mmHg 58%

    Tomorrow, 26 June, Tuesday

    Time Temperature Precipitation Wind Pressure Humidity
    00:00 +19°C° 0 mm 2 mps 683 mmHg 58%
    01:00 +20°C° 0 mm 1 mps 683 mmHg 58%
    02:00 +19°C° 0 mm 1 mps 683 mmHg 59%
    03:00 +19°C° 0 mm 1 mps 683 mmHg 59%
    04:00 +20°C° 0 mm 1 mps 683 mmHg 59%
    05:00 +20°C° 0 mm 1 mps 683 mmHg 60%
    06:00 +21°C° 0 mm 1 mps 683 mmHg 60%
    07:00 +23°C° 0 mm 2 mps 683 mmHg 54%
    08:00 +25°C° 0 mm 2 mps 683 mmHg 48%
    09:00 +27°C° 0 mm 3 mps 683 mmHg 42%
    10:00 +28°C° 0 mm 3 mps 683 mmHg 39%
    11:00 +29°C° 0 mm 4 mps 683 mmHg 37%
    12:00 +30°C° 0 mm 4 mps 683 mmHg 34%
    13:00 +32°C° 0 mm 4 mps 682 mmHg 33%
    14:00 +32°C° 0 mm 4 mps 682 mmHg 32%
    15:00 +33°C° 0 mm 4 mps 682 mmHg 31%
    16:00 +31°C° 0 mm 3 mps 682 mmHg 33%
    17:00 +30°C° 0 mm 3 mps 682 mmHg 36%
    18:00 +30°C° 0 mm 3 mps 682 mmHg 38%
    19:00 +27°C° 0 mm 2 mps 682 mmHg 41%
    20:00 +25°C° 0 mm 2 mps 682 mmHg 45%
    21:00 +23°C° 0 mm 1 mps 682 mmHg 49%
    22:00 +22°C° 0 mm 1 mps 682 mmHg 49%
    23:00 +22°C° 0 mm 1 mps 682 mmHg 48%

    Day after tomorrow, 27 June, Wednesday

    Time Temperature Precipitation Wind Pressure Humidity
    00:00 +21°C° 0 mm 1 mps 682 mmHg 48%
    01:00 +21°C° 0 mm 1 mps 681 mmHg 48%
    02:00 +20°C° 0 mm 1 mps 681 mmHg 47%
    03:00 +20°C° 0 mm 1 mps 681 mmHg 47%
    04:00 +20°C° 0 mm 1 mps 681 mmHg 48%
    05:00 +21°C° 0 mm 1 mps 681 mmHg 49%
    06:00 +22°C° 0 mm 1 mps 681 mmHg 50%
    07:00 +24°C° 0 mm 1 mps 681 mmHg 46%
    08:00 +26°C° 0 mm 2 mps 682 mmHg 41%
    09:00 +29°C° 0 mm 2 mps 682 mmHg 36%
    10:00 +30°C° 0 mm 2 mps 682 mmHg 34%
    11:00 +31°C° 0 mm 3 mps 682 mmHg 33%
    12:00 +33°C° 0 mm 3 mps 682 mmHg 31%
    13:00 +33°C° 0 mm 3 mps 682 mmHg 31%
    14:00 +34°C° 0 mm 3 mps 682 mmHg 30%
    15:00 +34°C° 0 mm 3 mps 682 mmHg 30%
    16:00 +34°C° 0 mm 3 mps 682 mmHg 32%
    17:00 +33°C° 0 mm 3 mps 682 mmHg 34%
    18:00 +31°C° 0 mm 3 mps 682 mmHg 36%
    19:00 +28°C° 0 mm 2 mps 682 mmHg 41%
    20:00 +26°C° 0 mm 2 mps 682 mmHg 46%
    21:00 +23°C° 0 mm 1 mps 682 mmHg 50%
    22:00 +22°C° 0 mm 1 mps 681 mmHg 51%
    23:00 +21°C° 0 mm 1 mps 681 mmHg 52%

    28 June, Thursday

    Time Temperature Precipitation Wind Pressure Humidity
    00:00 +20°C° 0 mm 1 mps 681 mmHg 53%
    01:00 +20°C° 0 mm 1 mps 681 mmHg 52%
    02:00 +20°C° 0 mm 1 mps 681 mmHg 51%
    03:00 +18°C° 0 mm 2 mps 681 mmHg 50%
    04:00 +20°C° 0 mm 1 mps 681 mmHg 49%
    05:00 +21°C° 0 mm 1 mps 681 mmHg 49%
    06:00 +22°C° 0 mm 1 mps 682 mmHg 48%
    07:00 +24°C° 0 mm 2 mps 682 mmHg 43%
    08:00 +26°C° 0 mm 2 mps 682 mmHg 38%
    09:00 +29°C° 0 mm 3 mps 682 mmHg 33%
    10:00 +30°C° 0 mm 3 mps 682 mmHg 31%
    11:00 +32°C° 0 mm 4 mps 682 mmHg 29%
    12:00 +33°C° 0 mm 4 mps 682 mmHg 28%
    13:00 +34°C° 0 mm 4 mps 682 mmHg 27%
    14:00 +34°C° 0 mm 4 mps 682 mmHg 27%
    15:00 +35°C° 0 mm 4 mps 681 mmHg 26%
    16:00 +34°C° 0 mm 4 mps 681 mmHg 28%
    17:00 +33°C° 0 mm 4 mps 681 mmHg 31%
    18:00 +31°C° 0 mm 3 mps 681 mmHg 33%
    19:00 +28°C° 0 mm 3 mps 681 mmHg 36%
    20:00 +26°C° 0 mm 3 mps 681 mmHg 39%
    21:00 +23°C° 0 mm 2 mps 681 mmHg 43%
    22:00 +21°C° 0 mm 2 mps 681 mmHg 42%
    23:00 +20°C° 0 mm 2 mps 681 mmHg 40%

    29 June, Friday

    Time Temperature Precipitation Wind Pressure Humidity
    00:00 +20°C° 0 mm 2 mps 681 mmHg 39%
    01:00 +19°C° 0 mm 2 mps 681 mmHg 40%
    02:00 +19°C° 0 mm 2 mps 680 mmHg 42%
    03:00 +19°C° 0 mm 2 mps 680 mmHg 43%
    04:00 +19°C° 0 mm 2 mps 680 mmHg 44%
    05:00 +20°C° 0 mm 2 mps 681 mmHg 46%
    06:00 +21°C° 0 mm 2 mps 681 mmHg 47%
    07:00 +24°C° 0 mm 2 mps 681 mmHg 42%
    08:00 +27°C° 0 mm 2 mps 681 mmHg 36%
    09:00 +30°C° 0 mm 2 mps 681 mmHg 31%
    10:00 +31°C° 0 mm 3 mps 681 mmHg 29%
    11:00 +33°C° 0 mm 3 mps 681 mmHg 28%
    12:00 +34°C° 0 mm 3 mps 681 mmHg 26%
    13:00 +35°C° 0 mm 3 mps 681 mmHg 26%
    14:00 +36°C° 0 mm 3 mps 681 mmHg 25%
    15:00 +36°C° 0 mm 3 mps 681 mmHg 25%
    16:00 +35°C° 0 mm 3 mps 681 mmHg 27%
    17:00 +35°C° 0 mm 3 mps 680 mmHg 29%
    18:00 +34°C° 0 mm 2 mps 680 mmHg 32%
    19:00 +30°C° 0 mm 2 mps 680 mmHg 37%
    20:00 +26°C° 0 mm 1 mps 680 mmHg 42%
    21:00 +23°C° 0 mm 1 mps 680 mmHg 48%
    22:00 +23°C° 0 mm 1 mps 680 mmHg 48%
    23:00 +22°C° 0 mm 1 mps 680 mmHg 48%

    30 June, Saturday

    Time Temperature Precipitation Wind Pressure Humidity
    00:00 +21°C° 0 mm 1 mps 680 mmHg 48%
    01:00 +21°C° 0 mm 1 mps 680 mmHg 47%
    02:00 +21°C° 0 mm 1 mps 680 mmHg 45%
    03:00 +20°C° 0 mm 1 mps 679 mmHg 44%
    04:00 +21°C° 0 mm 1 mps 680 mmHg 43%
    05:00 +22°C° 0 mm 1 mps 680 mmHg 43%
    06:00 +23°C° 0 mm 1 mps 680 mmHg 43%
    07:00 +26°C° 0 mm 1 mps 681 mmHg 38%
    08:00 +28°C° 0 mm 2 mps 681 mmHg 32%
    09:00 +31°C° 0 mm 2 mps 681 mmHg 27%
    10:00 +32°C° 0 mm 2 mps 681 mmHg 26%
    11:00 +34°C° 0 mm 3 mps 681 mmHg 25%
    12:00 +36°C° 0 mm 3 mps 681 mmHg 23%
    13:00 +36°C° 0 mm 3 mps 681 mmHg 23%
    14:00 +37°C° 0 mm 3 mps 681 mmHg 23%
    15:00 +37°C° 0 mm 3 mps 680 mmHg 23%
    16:00 +36°C° 0 mm 3 mps 680 mmHg 25%
    17:00 +35°C° 0 mm 3 mps 680 mmHg 27%
    18:00 +34°C° 0 mm 2 mps 680 mmHg 30%
    19:00 +30°C° 0 mm 2 mps 680 mmHg 35%
    20:00 +27°C° 0 mm 2 mps 680 mmHg 40%
    21:00 +24°C° 0 mm 1 mps 680 mmHg 46%
    22:00 +23°C° 0 mm 1 mps 680 mmHg 44%
    23:00 +22°C° 0 mm 1 mps 680 mmHg 43%
    Show more